Temp
19 18 19 20 20 20 20 21 22 22 23 24 24 24 24 24 24 22 21 29 29 28 28 28 27 27 27 26 28 26 24 25 27 27 29 27 28 29 29 27 28 27 25 26 25
18 19 19 19 19 20 20 21 21 22 22 23 24 24 23 22 21 19 29 29 28 28 27 27 27 27 25 27 28 25 24 27 27 28 29 28 28 29 29 28 27 27 26 25 23
18 19 19 19 20 20 21 21 20 22 23 23 24 23 21 20 20 26 29 29 29 28 28 28 28 28 28 28 29 26 27 27 28 29 29 28 28 29 28 27 26 26 24 24 23
17 18 19 19 19 20 20 20 20 22 23 23 23 22 20 19 29 29 29 29 28 28 28 28 28 28 27 29 30 30 29 29 31 29 29 29 29 28 28 30 28 26 25 24 23
17 18 18 19 19 20 21 21 22 22 23 23 23 22 20 23 26 29 30 29 28 27 28 27 28 28 29 29 29 30 31 30 30 29 29 30 29 29 29 28 27 26 26 24 23
16 17 18 19 20 20 21 22 22 23 23 24 23 21 20 27 28 29 29 28 28 27 27 27 28 28 29 29 29 30 29 28 29 31 31 29 29 30 28 26 26 26 25 25 24
16 17 18 19 20 21 22 22 23 24 24 24 22 21 21 27 28 28 28 28 28 28 26 28 29 29 29 29 29 29 29 28 30 31 32 30 31 29 26 26 26 25 25 25 24
15 16 17 18 20 21 22 23 23 22 22 22 21 20 23 27 27 27 27 27 28 28 28 29 29 28 28 29 27 28 28 27 30 30 31 31 28 28 25 26 25 25 25 24 23
15 16 17 18 20 22 23 23 22 21 20 20 19 21 26 26 26 28 28 28 28 28 29 29 29 26 26 25 24 23 27 28 29 29 31 31 29 27 26 26 24 24 23 24 24
15 16 17 18 20 22 23 23 21 20 19 19 19 23 25 27 28 28 29 29 28 27 28 28 22 23 22 23 25 26 28 28 27 29 30 30 28 25 25 25 24 23 23 23 23
15 16 17 18 20 22 24 22 17 20 20 24 25 25 25 28 29 28 29 29 28 27 26 26 24 23 24 24 27 27 28 27 27 28 29 28 27 26 24 24 23 23 22 23 23
14 15 17 19 21 23 23 17 19 19 18 21 21 23 25 27 28 27 29 28 28 26 26 25 23 24 26 26 26 27 27 26 27 29 29 27 27 24 24 23 23 24 23 23 22
14 15 16 19 21 21 20 20 20 19 18 21 22 23 25 26 27 27 27 27 27 26 25 25 28 25 27 27 27 26 26 27 28 28 28 27 26 24 25 23 23 23 23 23 22
14 15 16 18 19 18 20 21 22 20 19 24 25 25 25 25 28 28 29 28 28 26 24 26 27 28 28 28 27 28 27 29 29 28 27 27 26 25 24 23 22 23 22 22 22
14 15 16 16 16 17 21 22 23 22 24 28 27 28 25 28 29 29 29 29 27 27 25 27 28 28 28 29 28 28 29 29 29 27 27 27 25 25 23 25 23 23 22 22 22
14 15 16 15 16 20 21 22 23 21 23 27 28 27 27 28 29 27 29 29 27 27 27 27 28 29 28 30 29 30 28 24 21 22 24 26 25 24 24 25 25 24 23 22 22
15 16 16 16 17 20 20 19 20 21 24 26 27 26 27 27 28 28 27 27 26 25 26 26 27 28 29 28 28 28 24 23 25 23 24 24 25 25 26 25 25 25 23 23 22
16 17 17 18 19 19 19 19 21 23 22 24 25 25 27 27 27 28 25 25 26 24 23 25 25 28 28 28 28 27 25 23 26 24 25 24 25 27 26 24 24 24 23 22 21
16 15 15 18 19 18 16 18 19 20 23 23 24 24 24 26 28 28 25 24 25 24 25 23 25 27 29 30 29 27 26 25 21 21 23 23 24 25 26 24 23 23 23 22 22
12 12 15 17 18 17 16 16 19 20 23 23 24 24 25 25 26 26 25 26 26 24 25 25 25 27 29 30 29 28 25 25 21 25 26 23 24 24 26 24 23 22 22 21 21
11 13 15 16 17 14 15 15 19 21 22 23 23 24 24 25 26 26 26 27 27 27 24 23 24 27 29 28 27 26 26 22 21 21 23 23 23 22 25 23 23 23 22 22 21
8 14 15 16 14 10 14 17 20 22 22 23 22 22 24 24 24 25 26 26 27 27 24 23 21 23 25 27 28 28 27 23 23 25 20 21 24 23 22 23 22 22 21 21 20
8 9 15 16 14 14 15 19 21 22 22 22 22 23 23 24 23 24 26 27 27 27 26 23 22 22 24 25 27 28 26 22 20 20 21 23 24 23 21 21 21 22 21 20 20
8 14 12 11 10 16 17 19 20 22 21 22 22 23 23 22 22 24 25 26 25 26 23 24 20 22 23 25 26 28 28 24 23 22 21 22 26 25 23 21 20 20 20 20 20
7 10 10 13 13 14 15 16 19 18 19 19 22 20 20 21 22 22 23 24 25 25 24 22 23 22 24 25 28 28 28 25 27 25 27 27 24 25 22 21 20 19 20 20 20
8 9 7 9 10 14 14 16 18 18 19 20 20 19 19 19 22 21 23 24 25 24 23 20 24 25 26 27 27 28 28 26 27 26 26 26 24 23 21 19 20 19 20 20 20
6 7 7 9 11 13 13 16 17 17 18 19 19 18 19 20 19 19 18 19 20 24 23 21 21 21 25 24 27 27 28 28 28 27 27 26 27 20 20 20 20 19 20 20 20
Height
796 794 792 790 789 785 784 782 779 777 776 773 770 768 767 765 764 764 763 756 756 758 758 758 759 761 762 762 763 767 800 812 800 797 785 770 774 764 762 770 768 770 773 772 775
795 793 791 790 788 785 784 780 779 777 775 772 770 767 766 765 764 762 754 754 756 758 759 759 760 760 768 766 767 780 804 796 780 776 776 768 770 766 770 774 773 771 772 772 776
794 791 790 789 787 785 783 780 779 776 774 771 769 767 765 765 765 755 752 754 756 759 761 761 761 762 770 767 769 778 793 779 771 764 763 767 766 760 770 778 770 773 774 773 775
793 791 790 788 786 784 782 780 778 775 772 770 768 766 765 765 776 753 753 756 758 761 762 763 764 770 775 776 767 779 767 767 762 760 763 766 757 764 764 757 755 759 765 772 779
794 791 789 787 786 783 781 778 776 773 770 768 767 765 765 765 760 753 754 757 759 761 763 764 769 771 777 774 771 776 767 761 756 757 756 755 760 762 759 753 753 759 762 772 777
792 790 788 785 783 780 777 775 773 770 767 766 765 765 766 770 755 754 755 757 759 762 763 764 767 766 770 771 776 768 768 766 756 754 751 760 760 760 757 751 757 761 765 771 771
792 789 786 783 781 778 774 772 769 765 763 763 763 763 764 760 755 755 757 758 760 762 764 764 765 766 767 773 765 768 776 766 761 757 757 754 765 765 755 755 760 762 765 770 769
792 789 785 782 780 776 773 770 765 762 760 761 762 762 762 753 754 755 756 758 760 762 763 764 765 766 769 765 775 782 781 799 766 761 757 759 787 762 756 758 764 765 766 770 767
792 789 785 781 777 774 772 767 763 761 760 760 762 760 761 753 753 753 755 756 759 762 764 764 765 773 773 789 803 803 808 797 785 763 763 765 779 765 763 766 769 768 770 772 774
792 788 784 779 776 772 769 763 762 761 761 761 762 765 756 754 750 751 754 756 759 762 766 768 779 791 796 804 826 811 804 799 799 775 767 771 774 770 766 769 771 771 772 774 777
791 787 782 778 774 771 767 763 767 766 761 757 757 757 753 749 749 751 753 757 759 767 784 779 796 807 796 794 790 794 798 804 789 772 775 777 776 773 769 769 772 771 775 774 775
791 786 782 777 773 770 769 773 779 780 777 752 751 753 749 750 755 751 752 762 768 784 779 793 805 787 782 785 791 793 799 802 786 771 773 780 779 778 775 775 771 770 775 774 777
790 786 781 776 772 771 772 775 775 774 780 756 748 747 745 747 754 753 749 758 772 784 786 797 783 778 780 785 793 795 801 796 794 779 775 783 793 785 772 773 769 769 774 774 776
789 785 781 775 775 772 773 774 771 771 796 764 750 741 741 742 752 740 744 754 767 782 786 787 774 776 780 785 787 797 781 779 784 793 810 785 821 791 782 781 776 773 776 776 774
788 784 781 779 778 774 773 771 768 771 810 749 745 734 737 744 740 745 740 748 771 774 780 784 775 776 781 777 777 787 771 778 778 795 798 797 816 795 783 778 775 770 775 779 776
786 783 780 778 774 770 770 768 770 801 808 759 742 746 750 743 741 744 746 745 753 768 771 775 762 765 770 763 766 764 776 794 806 814 829 804 814 807 791 777 768 765 766 776 777
780 778 776 775 772 771 772 771 803 813 765 765 759 752 752 755 751 750 760 767 779 794 794 782 774 760 757 772 766 774 800 833 828 839 836 806 812 796 770 766 763 760 766 772 774
775 771 769 770 771 772 773 787 806 783 782 760 758 756 758 753 754 753 766 778 767 778 800 800 805 766 756 766 775 781 793 830 834 844 826 808 813 785 761 760 755 756 759 760 759
771 767 766 766 769 773 779 805 795 787 770 770 762 769 770 758 753 755 769 774 766 768 793 803 795 758 752 750 757 780 795 784 825 832 828 819 795 769 758 763 763 761 757 758 760
770 768 767 767 768 772 788 798 787 776 768 767 775 769 776 769 764 767 772 756 758 757 756 776 797 765 753 748 753 764 769 800 818 829 826 823 811 801 769 770 768 766 761 761 761
771 771 770 768 771 779 798 798 780 769 765 771 774 774 772 771 766 769 768 754 749 754 757 772 783 775 756 766 773 776 782 795 805 815 830 834 817 772 761 763 762 759 759 757 763
774 778 774 774 786 800 794 785 772 769 766 767 769 773 771 770 771 768 768 757 744 749 768 766 788 794 779 756 750 756 767 782 808 810 824 824 809 761 759 758 759 762 760 761 770
786 786 776 775 793 793 785 776 771 771 769 770 773 768 767 771 780 769 760 745 743 748 757 763 785 803 790 774 755 757 764 777 792 800 814 819 804 758 759 758 756 757 759 767 769
788 786 783 783 790 784 783 778 777 766 770 768 770 768 771 775 772 771 764 749 746 745 746 750 783 785 797 779 763 762 758 769 778 802 807 802 777 763 757 760 760 760 762 765 769
792 798 799 794 791 789 787 786 780 784 774 773 771 778 780 784 776 776 767 760 748 747 751 759 775 776 765 758 752 753 756 763 763 771 777 769 778 758 752 750 756 759 762 767 770
799 800 801 800 797 789 791 790 786 785 781 777 779 777 778 783 774 780 771 765 760 753 757 762 769 760 761 752 752 755 751 756 754 761 764 763 771 747 745 747 755 758 761 765 769
802 803 803 801 798 793 795 789 785 784 777 774 776 778 777 773 772 768 769 766 765 759 762 767 770 778 777 764 756 770 751 751 744 743 750 766 747 749 754 754 757 762 762 765 771
Wind_Speed
13 14 14 15 15 16 17 17 17 18 18 16 14 10 9 7 8 7 5 7 3 6 5 3 0 2 2 3 1 3 4 1 4 3 5 3 2 2 3 5 2 6 5 4 24
14 15 15 16 17 17 17 17 17 18 19 17 16 11 9 5 4 8 7 7 8 11 7 2 2 3 3 2 1 4 4 8 7 5 5 4 5 3 2 2 3 2 4 20 24
15 15 16 17 17 17 17 17 19 18 18 17 15 10 7 5 1 5 3 12 13 11 2 3 3 2 3 2 0 2 4 7 6 9 6 5 5 4 7 5 6 8 10 14 19
16 17 17 17 18 18 18 18 20 19 17 15 14 8 5 2 2 1 6 15 10 11 3 3 3 2 1 1 1 1 6 4 4 6 5 7 3 5 8 9 7 10 18 14 13
18 18 18 18 19 20 20 20 20 19 17 13 11 6 1 2 5 0 14 14 12 12 4 3 2 1 1 2 4 2 4 5 9 7 7 7 11 6 7 2 6 14 17 14 12
20 20 21 20 21 22 22 23 23 22 18 12 6 2 1 2 3 7 15 15 11 11 6 3 3 3 3 1 2 3 6 8 8 5 1 6 5 8 1 8 13 15 13 13 14
22 22 22 22 22 23 24 24 25 25 15 7 1 1 1 6 1 11 13 11 8 11 4 5 1 2 1 5 1 4 7 7 5 4 2 5 2 7 6 10 15 14 12 11 11
23 24 24 24 23 23 25 27 27 15 6 2 3 2 5 2 3 11 13 7 6 10 2 1 2 1 1 2 7 3 3 5 4 5 3 5 9 3 6 14 13 12 9 8 11
24 25 25 25 23 23 25 28 12 7 5 6 2 2 5 1 5 10 11 5 7 8 4 4 2 2 5 4 5 7 2 2 8 4 1 1 7 3 2 4 7 8 8 7 1
25 25 27 25 22 22 24 20 3 3 3 3 1 2 1 2 4 10 11 10 3 4 2 2 5 3 4 4 4 2 0 3 5 6 1 4 7 1 5 5 8 8 6 5 5
26 27 27 26 21 19 19 5 5 3 2 4 2 2 4 6 5 5 9 6 4 6 3 3 3 6 8 5 2 1 2 3 5 7 2 4 5 4 5 5 8 9 6 7 6
26 27 27 24 20 11 9 6 5 5 7 6 7 6 8 0 3 3 13 5 4 4 3 5 5 8 3 3 4 2 2 6 8 2 2 2 5 4 2 3 6 4 6 5 5
26 27 27 24 11 3 5 3 12 3 2 7 5 4 5 11 7 6 10 5 4 5 5 5 1 7 4 4 4 3 4 4 6 5 2 3 3 5 2 2 6 5 3 2 4
25 26 27 26 2 11 2 10 13 6 5 6 4 5 4 8 3 8 11 6 3 10 7 4 4 4 1 3 6 2 5 3 5 1 2 2 4 5 3 5 5 7 1 1 0
24 25 23 18 9 2 5 14 6 2 3 1 2 1 3 8 6 1 7 4 8 6 6 6 2 3 2 4 6 7 2 3 2 2 3 3 4 7 5 6 7 8 5 5 4
23 22 20 8 10 7 9 11 2 5 6 4 2 2 4 2 2 3 4 5 3 5 0 5 2 3 6 3 6 5 3 7 5 3 3 3 4 6 3 4 4 4 7 9 5
25 20 17 11 2 4 11 2 4 3 5 5 3 4 3 3 2 3 6 6 6 4 2 4 5 4 6 4 1 4 6 3 4 4 5 1 1 9 3 5 5 6 6 10 8
24 19 10 10 3 3 2 5 4 2 5 5 4 3 2 3 5 3 7 5 2 5 3 2 8 3 3 8 7 4 7 5 4 3 4 1 4 5 4 6 7 3 10 9 10
23 8 5 2 15 4 5 3 7 5 3 6 4 6 5 4 3 3 7 7 8 9 8 5 5 4 3 4 7 3 3 3 7 3 2 3 6 9 2 4 4 7 8 7 7
14 6 4 5 11 4 4 4 3 4 4 4 2 2 4 5 3 3 6 3 6 10 4 5 4 4 3 2 2 4 6 3 2 4 3 4 5 5 5 5 5 7 9 8 4
4 2 11 8 7 5 4 6 4 4 5 4 1 2 2 3 1 2 3 2 3 4 8 7 5 5 4 3 7 2 2 5 5 4 6 2 6 8 9 9 14 12 9 9 7
4 3 5 2 3 1 3 5 3 2 3 3 0 2 1 3 3 2 3 4 2 2 7 6 5 4 10 5 1 3 5 6 5 4 2 4 6 2 6 6 8 5 6 3 4
2 1 2 5 3 1 4 3 2 1 1 2 2 1 2 2 3 3 2 1 3 1 5 7 2 2 9 6 1 4 4 4 5 3 6 6 6 3 5 5 7 11 9 4 6
2 2 3 3 0 2 2 1 1 2 3 3 3 2 3 3 3 4 3 3 8 3 5 6 3 7 7 8 3 4 4 5 6 4 4 6 5 6 8 8 6 5 7 8 6
3 0 1 1 2 3 2 5 2 4 5 6 2 4 2 2 3 4 3 5 5 3 1 4 5 4 5 4 4 3 5 6 4 5 5 4 7 7 11 13 7 7 7 10 9
2 2 4 0 2 0 2 2 2 3 1 2 3 6 3 5 0 4 5 3 5 5 4 2 1 2 3 2 8 5 6 7 5 4 3 3 8 4 4 7 6 8 9 11 11
5 2 2 2 2 2 1 0 1 2 3 4 3 2 3 3 5 12 8 9 6 5 2 4 2 3 3 3 0 2 6 6 4 4 6 5 6 2 2 6 6 6 9 12 10
Wind_Direction
15 10 8 7 6 7 5 4 3 1 359 359 352 341 323 304 288 282 255 233 249 225 186 186 144 50 58 351 72 119 66 94 218 163 266 316 235 41 93 116 184 165 149 190 162
8 5 6 2 0 3 2 0 357 354 354 353 355 348 338 322 293 262 252 218 186 170 156 150 64 70 20 330 18 89 96 206 190 203 229 223 186 143 130 148 208 137 65 144 150
1 3 0 357 355 355 357 358 352 347 348 348 353 347 341 337 204 252 210 167 168 173 96 154 36 62 25 330 82 116 175 193 238 225 207 208 227 187 145 234 215 183 154 168 159
2 0 358 354 352 350 352 352 347 342 341 344 347 343 337 12 88 329 167 177 172 183 135 130 32 50 94 307 336 313 253 238 225 233 202 214 185 212 186 212 201 169 160 163 164
4 358 355 351 347 345 344 344 340 336 333 335 340 346 29 355 258 340 156 160 170 176 185 128 133 197 348 311 343 193 287 294 283 285 228 189 218 196 235 189 124 138 161 160 165
3 358 353 348 342 340 340 338 334 329 321 320 332 356 161 295 325 163 163 164 172 178 174 161 211 206 298 298 106 268 274 282 293 314 8 179 229 156 277 133 127 150 169 167 173
1 357 352 346 338 336 334 333 330 322 309 302 310 128 190 229 336 165 170 180 193 184 152 216 258 8 328 325 334 305 327 345 351 357 286 142 277 220 151 149 148 165 174 170 198
360 355 350 344 336 332 331 330 329 322 313 163 138 142 239 299 239 178 175 173 195 192 179 316 306 226 206 306 8 27 53 11 316 339 15 94 271 340 173 151 157 170 167 168 215
355 352 348 343 335 331 331 327 336 20 75 116 110 111 280 88 171 193 180 158 156 199 244 291 351 60 13 68 10 12 259 332 317 353 289 107 267 129 26 141 160 172 163 191 106
352 350 346 343 336 332 333 332 343 13 38 64 59 37 246 232 179 174 181 159 132 116 28 72 49 64 34 74 220 189 309 326 272 294 310 246 258 79 114 148 198 191 174 186 123
349 347 344 343 335 338 340 352 10 347 357 224 225 262 269 319 148 169 168 150 96 59 141 17 83 216 220 181 145 9 233 256 249 262 275 238 272 209 162 183 212 213 160 212 181
346 345 343 342 333 346 14 88 107 256 309 246 243 255 257 46 346 148 156 129 128 168 116 24 246 223 174 172 213 230 317 283 288 306 138 247 283 314 229 262 246 241 186 220 115
343 343 344 342 341 32 19 87 343 194 238 294 210 196 197 149 204 219 148 138 135 146 182 166 229 119 162 200 186 223 190 245 223 332 38 133 309 288 292 189 268 241 100 290 173
342 341 344 344 28 348 308 327 344 160 34 276 268 278 143 154 226 187 167 138 156 189 160 226 250 225 182 250 157 279 202 232 271 45 254 27 276 292 300 284 277 265 258 181 117
338 338 340 337 310 292 309 328 354 120 351 269 230 155 161 165 160 206 182 73 164 172 120 246 205 148 165 214 176 233 122 217 258 140 80 338 80 268 350 309 246 236 214 141 188
335 332 329 321 309 291 304 329 56 41 254 359 97 144 123 276 152 84 120 70 144 137 307 233 240 206 211 213 187 279 98 43 49 78 39 268 129 288 244 217 283 242 186 147 166
332 326 310 288 266 326 319 25 52 161 320 328 352 7 158 192 204 117 148 162 166 114 307 316 242 229 186 250 28 95 64 347 2 16 209 30 80 236 250 261 235 261 128 143 165
331 322 293 255 223 265 270 57 176 246 260 305 352 314 170 152 200 112 120 176 223 92 108 147 324 195 161 191 176 172 150 153 198 199 246 329 233 255 191 277 274 120 135 149 175
336 324 286 306 212 217 80 110 205 205 301 337 324 63 356 11 117 121 179 195 200 163 172 162 268 289 215 184 145 174 181 173 106 4 53 266 294 312 81 52 77 138 143 177 171
337 333 329 317 170 144 78 223 232 224 323 10 59 38 23 337 80 146 172 218 214 184 145 204 293 247 284 60 45 168 154 88 9 140 212 299 292 240 273 147 138 177 185 189 192
353 58 355 136 131 54 167 221 254 251 55 45 29 328 307 321 13 188 206 323 171 162 176 150 154 249 34 226 193 119 177 57 120 117 161 168 265 218 227 175 183 198 194 191 150
355 53 17 90 63 29 157 197 253 291 359 351 115 247 265 9 329 308 234 211 13 168 143 205 156 220 220 258 231 203 197 143 128 228 106 140 272 3 266 152 168 208 216 222 46
51 289 92 332 116 292 291 277 267 336 298 36 315 183 14 18 347 247 264 267 44 344 181 176 225 355 342 349 281 199 162 114 112 85 184 136 261 335 305 173 179 176 190 135 97
53 58 344 48 90 138 20 307 297 254 245 213 250 66 358 329 215 292 307 307 345 336 359 109 147 173 189 204 168 154 169 162 135 116 171 216 273 286 252 219 188 172 139 142 138
23 72 207 259 358 40 10 355 358 10 349 25 83 67 14 280 308 231 255 315 328 17 67 137 204 197 248 225 192 222 189 170 146 157 148 233 202 243 226 212 167 151 135 132 150
64 41 359 296 308 136 12 24 71 330 305 343 54 316 277 213 146 289 7 245 240 319 8 316 209 163 341 304 182 194 228 195 175 139 290 232 258 223 264 112 137 145 157 154 167
19 37 105 335 4 99 193 255 47 319 255 238 317 297 279 194 279 260 229 260 260 291 272 352 115 86 256 338 99 5 200 209 194 165 153 190 241 154 118 134 160 143 164 163 154